Time,TemperatureF,DewpointF,PressureIn,WindDirection,WindDirectionDegrees,WindSpeedMPH,WindSpeedGustMPH,Humidity,HourlyPrecipIn,Conditions,Clouds,dailyrainin,SoftwareType,DateUTC
2013-09-13 00:02:00,51.4,50.0,29.91,WSW,246,0.0,0.0,95,0.01,,,0.06,meteohub,2013-09-13 07:02:00,
2013-09-13 00:07:00,51.4,50.0,29.91,WSW,246,0.0,0.0,95,0.01,,,0.06,meteohub,2013-09-13 07:07:00,
2013-09-13 00:12:00,51.4,50.0,29.92,WSW,246,0.0,1.0,95,0.01,,,0.06,meteohub,2013-09-13 07:12:00,
2013-09-13 00:17:00,51.4,50.0,29.92,WSW,245,0.0,1.0,95,0.01,,,0.06,meteohub,2013-09-13 07:17:00,
2013-09-13 00:22:00,51.4,50.0,29.92,WSW,245,0.0,1.0,95,0.01,,,0.06,meteohub,2013-09-13 07:22:00,
2013-09-13 00:27:00,51.3,49.8,29.92,WSW,245,0.0,1.0,95,0.01,,,0.06,meteohub,2013-09-13 07:27:00,
2013-09-13 00:32:00,51.4,50.0,29.92,WSW,245,0.0,1.0,95,0.02,,,0.08,meteohub,2013-09-13 07:32:00,
2013-09-13 00:37:00,51.4,50.0,29.93,WSW,245,0.0,0.0,95,0.03,,,0.09,meteohub,2013-09-13 07:37:00,
2013-09-13 00:42:00,51.4,50.0,29.93,WSW,245,0.0,0.0,95,0.06,,,0.12,meteohub,2013-09-13 07:42:00,
2013-09-13 00:47:00,51.4,50.4,29.93,WSW,245,0.0,0.0,96,0.11,,,0.15,meteohub,2013-09-13 07:47:00,
2013-09-13 00:52:00,51.4,50.4,29.94,WSW,245,0.0,0.0,96,0.12,,,0.18,meteohub,2013-09-13 07:52:00,
2013-09-13 00:57:00,51.4,50.0,29.93,East,96,2.0,0.0,95,0.15,,,0.21,meteohub,2013-09-13 07:57:00,
2013-09-13 01:02:00,50.9,49.3,29.93,ESE,103,2.0,3.0,94,0.16,,,0.22,meteohub,2013-09-13 08:02:00,
2013-09-13 01:07:00,50.5,48.6,29.93,ESE,104,1.0,6.0,93,0.17,,,0.23,meteohub,2013-09-13 08:07:00,
2013-09-13 01:12:00,50.2,48.0,29.93,ESE,104,0.0,6.0,92,0.20,,,0.26,meteohub,2013-09-13 08:12:00,
2013-09-13 01:17:00,50.0,47.8,29.93,ENE,74,0.0,6.0,92,0.20,,,0.26,meteohub,2013-09-13 08:17:00,
2013-09-13 01:22:00,49.8,47.7,29.93,ESE,108,0.0,3.0,92,0.22,,,0.28,meteohub,2013-09-13 08:22:00,
2013-09-13 01:27:00,49.8,47.7,29.93,ESE,105,0.0,3.0,92,0.22,,,0.29,meteohub,2013-09-13 08:27:00,
2013-09-13 01:32:00,49.6,47.5,29.93,ESE,105,1.0,3.0,92,0.23,,,0.31,meteohub,2013-09-13 08:32:00,
2013-09-13 01:37:00,49.5,47.3,29.93,ESE,105,0.0,3.0,92,0.22,,,0.32,meteohub,2013-09-13 08:37:00,
2013-09-13 01:42:00,49.3,46.8,29.93,ESE,105,0.0,3.0,91,0.18,,,0.32,meteohub,2013-09-13 08:42:00,
2013-09-13 01:47:00,48.9,46.4,29.93,ESE,105,0.0,3.0,91,0.17,,,0.34,meteohub,2013-09-13 08:47:00,
2013-09-13 01:52:00,48.7,46.6,29.92,ESE,105,0.0,1.0,92,0.15,,,0.34,meteohub,2013-09-13 08:52:00,
2013-09-13 01:57:00,48.6,46.6,29.91,ESE,105,0.0,1.0,93,0.13,,,0.34,meteohub,2013-09-13 08:57:00,
2013-09-13 02:02:00,48.6,46.6,29.90,ESE,105,1.0,2.0,93,0.11,,,0.34,meteohub,2013-09-13 09:02:00,
2013-09-13 02:07:00,48.6,46.4,29.91,ESE,105,0.0,3.0,92,0.10,,,0.34,meteohub,2013-09-13 09:07:00,
2013-09-13 02:12:00,48.4,46.2,29.91,ESE,105,0.0,3.0,92,0.08,,,0.34,meteohub,2013-09-13 09:12:00,
2013-09-13 02:17:00,48.4,46.2,29.91,ESE,105,0.0,3.0,92,0.07,,,0.34,meteohub,2013-09-13 09:17:00,
2013-09-13 02:22:00,48.4,46.4,29.91,ESE,105,1.0,0.0,93,0.06,,,0.34,meteohub,2013-09-13 09:22:00,
2013-09-13 02:27:00,48.4,46.4,29.91,ESE,105,0.0,2.0,93,0.04,,,0.34,meteohub,2013-09-13 09:27:00,
2013-09-13 02:32:00,48.4,46.4,29.90,ESE,105,0.0,2.0,93,0.02,,,0.34,meteohub,2013-09-13 09:32:00,
2013-09-13 02:37:00,48.4,46.4,29.90,ESE,105,0.0,2.0,93,0.02,,,0.34,meteohub,2013-09-13 09:37:00,
2013-09-13 02:42:00,48.2,46.2,29.90,SW,221,2.0,2.0,93,0.01,,,0.34,meteohub,2013-09-13 09:42:00,
2013-09-13 02:47:00,48.2,46.2,29.90,SW,221,0.0,2.0,93,0.00,,,0.34,meteohub,2013-09-13 09:47:00,
2013-09-13 02:52:00,48.2,46.2,29.89,WSW,238,1.0,2.0,93,0.00,,,0.34,meteohub,2013-09-13 09:52:00,
2013-09-13 02:57:00,48.2,46.2,29.89,WSW,238,3.0,4.0,93,0.00,,,0.34,meteohub,2013-09-13 09:57:00,
2013-09-13 03:02:00,48.0,45.9,29.90,WSW,239,0.0,4.0,92,0.00,,,0.34,meteohub,2013-09-13 10:02:00,
2013-09-13 03:07:00,47.7,45.5,29.90,WSW,239,0.0,4.0,92,0.00,,,0.34,meteohub,2013-09-13 10:07:00,
2013-09-13 03:12:00,47.5,45.9,29.90,WSW,239,1.0,3.0,94,0.00,,,0.34,meteohub,2013-09-13 10:12:00,
2013-09-13 03:17:00,47.7,46.0,29.89,WSW,237,1.0,2.0,94,0.00,,,0.34,meteohub,2013-09-13 10:17:00,
2013-09-13 03:22:00,47.7,46.0,29.89,WSW,245,0.0,3.0,94,0.00,,,0.34,meteohub,2013-09-13 10:22:00,
2013-09-13 03:27:00,47.7,46.0,29.88,WSW,245,1.0,3.0,94,0.00,,,0.34,meteohub,2013-09-13 10:27:00,
2013-09-13 03:32:00,47.7,45.7,29.88,WSW,245,0.0,3.0,93,0.00,,,0.34,meteohub,2013-09-13 10:32:00,
2013-09-13 03:37:00,47.5,45.9,29.89,WSW,245,0.0,2.0,94,0.00,,,0.34,meteohub,2013-09-13 10:37:00,
2013-09-13 03:47:00,47.3,45.7,29.89,WSW,245,0.0,1.0,94,0.00,,,0.34,meteohub,2013-09-13 10:47:00,
2013-09-13 03:52:00,47.1,45.5,29.89,WSW,245,0.0,1.0,94,0.00,,,0.34,meteohub,2013-09-13 10:52:00,
2013-09-13 03:57:00,47.1,45.7,29.89,WSW,245,0.0,1.0,95,0.00,,,0.34,meteohub,2013-09-13 10:57:00,
2013-09-13 04:02:00,47.5,46.0,29.89,WSW,245,0.0,1.0,95,0.00,,,0.34,meteohub,2013-09-13 11:02:00,
2013-09-13 04:07:00,47.5,46.0,29.88,WSW,245,0.0,1.0,95,0.00,,,0.34,meteohub,2013-09-13 11:07:00,
2013-09-13 04:12:00,47.5,46.0,29.88,WSW,245,0.0,2.0,95,0.00,,,0.34,meteohub,2013-09-13 11:12:00,
2013-09-13 04:17:00,47.5,46.0,29.88,WSW,245,1.0,2.0,95,0.00,,,0.34,meteohub,2013-09-13 11:17:00,
2013-09-13 04:22:00,46.8,45.1,29.89,WSW,246,2.0,2.0,94,0.00,,,0.34,meteohub,2013-09-13 11:22:00,
2013-09-13 04:27:00,46.6,45.1,29.89,WSW,246,0.0,3.0,95,0.00,,,0.34,meteohub,2013-09-13 11:27:00,
2013-09-13 04:32:00,46.8,45.3,29.89,WSW,246,0.0,3.0,95,0.00,,,0.34,meteohub,2013-09-13 11:32:00,
2013-09-13 04:37:00,46.8,45.3,29.88,WSW,246,0.0,3.0,95,0.00,,,0.34,meteohub,2013-09-13 11:37:00,
2013-09-13 04:42:00,46.8,45.3,29.89,WSW,246,0.0,0.0,95,0.00,,,0.34,meteohub,2013-09-13 11:42:00,
2013-09-13 04:47:00,46.8,45.7,29.89,WSW,246,0.0,0.0,96,0.00,,,0.34,meteohub,2013-09-13 11:47:00,
2013-09-13 04:52:00,46.4,45.0,29.88,WSW,246,0.0,0.0,95,0.00,,,0.34,meteohub,2013-09-13 11:52:00,
2013-09-13 04:57:00,46.0,44.6,29.88,WSW,246,0.0,0.0,95,0.00,,,0.34,meteohub,2013-09-13 11:57:00,
2013-09-13 05:02:00,46.0,44.6,29.88,WSW,246,0.0,0.0,95,0.00,,,0.34,meteohub,2013-09-13 12:02:00,
2013-09-13 05:07:00,46.0,45.0,29.88,WSW,246,0.0,0.0,96,0.00,,,0.34,meteohub,2013-09-13 12:07:00,
2013-09-13 05:12:00,45.9,44.8,29.87,WSW,246,0.0,0.0,96,0.00,,,0.34,meteohub,2013-09-13 12:12:00,
2013-09-13 05:17:00,46.0,45.0,29.87,WSW,246,0.0,0.0,96,0.00,,,0.34,meteohub,2013-09-13 12:17:00,
2013-09-13 05:22:00,46.0,45.0,29.87,WSW,246,0.0,0.0,96,0.00,,,0.34,meteohub,2013-09-13 12:22:00,
2013-09-13 05:27:00,46.2,45.1,29.87,WSW,246,0.0,1.0,96,0.00,,,0.34,meteohub,2013-09-13 12:27:00,
2013-09-13 05:32:00,46.4,45.3,29.87,WSW,246,0.0,1.0,96,0.00,,,0.34,meteohub,2013-09-13 12:32:00,
2013-09-13 05:37:00,45.9,44.8,29.87,WSW,246,0.0,1.0,96,0.00,,,0.34,meteohub,2013-09-13 12:37:00,
2013-09-13 05:42:00,45.7,44.6,29.87,WSW,246,0.0,1.0,96,0.00,,,0.34,meteohub,2013-09-13 12:42:00,
2013-09-13 05:47:00,45.7,44.6,29.87,WSW,246,0.0,1.0,96,0.00,,,0.34,meteohub,2013-09-13 12:47:00,
2013-09-13 05:52:00,45.5,44.4,29.87,WSW,246,0.0,0.0,96,0.00,,,0.34,meteohub,2013-09-13 12:52:00,
2013-09-13 05:57:00,45.5,44.4,29.87,WSW,246,0.0,0.0,96,0.00,,,0.34,meteohub,2013-09-13 12:57:00,
2013-09-13 06:02:00,45.7,45.0,29.88,WSW,246,3.0,3.0,97,0.00,,,0.34,meteohub,2013-09-13 13:02:00,
2013-09-13 06:07:00,45.1,43.9,29.88,WSW,246,0.0,3.0,95,0.00,,,0.34,meteohub,2013-09-13 13:07:00,
2013-09-13 06:12:00,45.0,43.9,29.88,WSW,246,0.0,3.0,96,0.00,,,0.34,meteohub,2013-09-13 13:12:00,
2013-09-13 06:17:00,44.8,43.7,29.88,WSW,246,4.0,4.0,96,0.00,,,0.34,meteohub,2013-09-13 13:17:00,
2013-09-13 06:22:00,45.0,43.9,29.88,WSW,245,2.0,4.0,96,0.00,,,0.34,meteohub,2013-09-13 13:22:00,
2013-09-13 06:27:00,44.8,43.7,29.88,WSW,245,0.0,4.0,96,0.00,,,0.34,meteohub,2013-09-13 13:27:00,
2013-09-13 06:32:00,44.8,43.7,29.88,WSW,245,0.0,4.0,96,0.00,,,0.34,meteohub,2013-09-13 13:32:00,
2013-09-13 06:37:00,45.0,43.9,29.87,WSW,245,0.0,4.0,96,0.00,,,0.34,meteohub,2013-09-13 13:37:00,
2013-09-13 06:47:00,45.5,44.8,29.88,WSW,245,0.0,0.0,97,0.00,,,0.34,meteohub,2013-09-13 13:47:00,
2013-09-13 06:52:00,45.9,45.1,29.87,WSW,245,0.0,0.0,97,0.00,,,0.34,meteohub,2013-09-13 13:52:00,
2013-09-13 07:02:00,46.4,45.7,29.87,WSW,245,0.0,0.0,97,0.00,,,0.34,meteohub,2013-09-13 14:02:00,
2013-09-13 07:07:00,46.6,45.9,29.87,WSW,245,0.0,0.0,97,0.00,,,0.34,meteohub,2013-09-13 14:07:00,
2013-09-13 07:12:00,46.8,46.0,29.87,WSW,245,0.0,0.0,97,0.00,,,0.34,meteohub,2013-09-13 14:12:00,
2013-09-13 07:17:00,47.1,46.4,29.87,WSW,245,0.0,0.0,97,0.00,,,0.34,meteohub,2013-09-13 14:17:00,
2013-09-13 07:22:00,47.7,47.1,29.87,WSW,245,0.0,0.0,98,0.00,,,0.34,meteohub,2013-09-13 14:22:00,
2013-09-13 07:27:00,48.0,47.5,29.87,WSW,245,0.0,0.0,98,0.00,,,0.34,meteohub,2013-09-13 14:27:00,
2013-09-13 07:32:00,48.4,47.5,29.87,WSW,246,0.0,1.0,97,0.00,,,0.34,meteohub,2013-09-13 14:32:00,
2013-09-13 07:37:00,48.7,47.7,29.87,WSW,248,1.0,1.0,96,0.00,,,0.34,meteohub,2013-09-13 14:37:00,
2013-09-13 07:42:00,49.3,47.8,29.87,WSW,248,0.0,3.0,95,0.00,,,0.34,meteohub,2013-09-13 14:42:00,
2013-09-13 07:47:00,49.8,48.2,29.87,WSW,248,0.0,3.0,94,0.00,,,0.34,meteohub,2013-09-13 14:47:00,
2013-09-13 07:52:00,50.4,48.4,29.87,WSW,248,0.0,3.0,93,0.00,,,0.34,meteohub,2013-09-13 14:52:00,
2013-09-13 07:57:00,50.7,48.6,29.87,WSW,248,0.0,1.0,92,0.00,,,0.34,meteohub,2013-09-13 14:57:00,
2013-09-13 08:02:00,51.3,48.7,29.86,NNW,345,1.0,1.0,91,0.00,,,0.34,meteohub,2013-09-13 15:02:00,
2013-09-13 08:07:00,51.4,48.4,29.86,North,9,1.0,2.0,89,0.00,,,0.34,meteohub,2013-09-13 15:07:00,
2013-09-13 08:12:00,51.6,48.7,29.86,North,9,0.0,2.0,90,0.00,,,0.34,meteohub,2013-09-13 15:12:00,
2013-09-13 08:17:00,52.3,49.5,29.86,North,9,0.0,2.0,90,0.00,,,0.34,meteohub,2013-09-13 15:17:00,
2013-09-13 08:22:00,52.5,48.7,29.85,North,9,0.0,2.0,87,0.00,,,0.34,meteohub,2013-09-13 15:22:00,
2013-09-13 08:27:00,52.7,48.9,29.85,North,9,0.0,2.0,87,0.00,,,0.34,meteohub,2013-09-13 15:27:00,
2013-09-13 08:32:00,52.9,48.7,29.85,North,9,0.0,3.0,86,0.00,,,0.34,meteohub,2013-09-13 15:32:00,
2013-09-13 08:37:00,52.9,48.6,29.85,North,9,0.0,3.0,85,0.00,,,0.34,meteohub,2013-09-13 15:37:00,
2013-09-13 08:42:00,52.9,48.7,29.85,NNE,32,0.0,3.0,86,0.00,,,0.34,meteohub,2013-09-13 15:42:00,
2013-09-13 08:47:00,53.1,48.7,29.84,NNE,32,0.0,2.0,85,0.00,,,0.34,meteohub,2013-09-13 15:47:00,
2013-09-13 08:52:00,53.6,49.3,29.84,NNE,32,1.0,2.0,85,0.00,,,0.34,meteohub,2013-09-13 15:52:00,
2013-09-13 08:57:00,54.0,49.3,29.84,NNE,32,0.0,3.0,84,0.00,,,0.34,meteohub,2013-09-13 15:57:00,
2013-09-13 09:02:00,54.3,48.9,29.84,NNE,32,0.0,3.0,82,0.00,,,0.34,meteohub,2013-09-13 16:02:00,
2013-09-13 09:07:00,54.9,48.7,29.84,NNE,32,0.0,3.0,80,0.00,,,0.34,meteohub,2013-09-13 16:07:00,
2013-09-13 09:12:00,55.2,48.6,29.84,NNE,32,0.0,1.0,78,0.00,,,0.34,meteohub,2013-09-13 16:12:00,
2013-09-13 09:17:00,55.4,47.3,29.84,NNE,32,1.0,3.0,74,0.00,,,0.34,meteohub,2013-09-13 16:17:00,
2013-09-13 09:22:00,55.8,48.7,29.83,NNE,32,0.0,3.0,77,0.00,,,0.34,meteohub,2013-09-13 16:22:00,
2013-09-13 09:27:00,55.9,46.8,29.84,NNE,32,0.0,4.0,71,0.00,,,0.34,meteohub,2013-09-13 16:27:00,
2013-09-13 09:32:00,56.1,46.8,29.84,NNE,32,0.0,4.0,71,0.00,,,0.34,meteohub,2013-09-13 16:32:00,
2013-09-13 09:37:00,56.5,47.5,29.84,NNE,28,3.0,4.0,72,0.00,,,0.34,meteohub,2013-09-13 16:37:00,
2013-09-13 09:42:00,56.5,47.1,29.84,NE,44,2.0,4.0,71,0.00,,,0.34,meteohub,2013-09-13 16:42:00,
2013-09-13 09:52:00,56.8,47.1,29.83,NE,51,3.0,4.0,70,0.00,,,0.34,meteohub,2013-09-13 16:52:00,
2013-09-13 09:57:00,56.8,47.1,29.83,NE,49,1.0,4.0,70,0.00,,,0.34,meteohub,2013-09-13 16:57:00,
2013-09-13 10:02:00,57.2,47.8,29.83,NE,49,0.0,4.0,71,0.00,,,0.34,meteohub,2013-09-13 17:02:00,
2013-09-13 10:07:00,57.6,49.6,29.83,NE,55,1.0,5.0,75,0.00,,,0.34,meteohub,2013-09-13 17:07:00,
2013-09-13 10:12:00,57.9,49.6,29.83,ENE,57,2.0,5.0,74,0.00,,,0.34,meteohub,2013-09-13 17:12:00,
2013-09-13 10:17:00,58.3,48.2,29.83,NE,55,2.0,5.0,69,0.00,,,0.34,meteohub,2013-09-13 17:17:00,
2013-09-13 10:22:00,58.6,47.7,29.82,NE,49,2.0,5.0,67,0.00,,,0.34,meteohub,2013-09-13 17:22:00,
2013-09-13 10:27:00,58.8,46.2,29.82,NE,38,1.0,6.0,63,0.00,,,0.34,meteohub,2013-09-13 17:27:00,
2013-09-13 10:32:00,59.2,45.3,29.81,NE,39,1.0,6.0,60,0.00,,,0.34,meteohub,2013-09-13 17:32:00,
2013-09-13 10:37:00,59.2,46.2,29.81,NNE,26,4.0,6.0,62,0.00,,,0.34,meteohub,2013-09-13 17:37:00,
2013-09-13 10:42:00,59.4,47.1,29.81,NE,50,3.0,5.0,64,0.00,,,0.34,meteohub,2013-09-13 17:42:00,
2013-09-13 10:47:00,59.4,48.0,29.81,NE,46,1.0,5.0,66,0.00,,,0.34,meteohub,2013-09-13 17:47:00,
2013-09-13 10:52:00,59.5,48.6,29.81,NE,49,3.0,5.0,67,0.00,,,0.34,meteohub,2013-09-13 17:52:00,
2013-09-13 10:57:00,59.7,48.7,29.81,NE,49,3.0,6.0,67,0.00,,,0.34,meteohub,2013-09-13 17:57:00,
2013-09-13 11:02:00,60.4,50.5,29.81,ENE,57,4.0,6.0,70,0.00,,,0.34,meteohub,2013-09-13 18:02:00,
2013-09-13 11:07:00,61.0,49.5,29.81,NE,40,2.0,8.0,66,0.00,,,0.34,meteohub,2013-09-13 18:07:00,
2013-09-13 11:12:00,61.2,49.3,29.81,East,81,1.0,8.0,65,0.00,,,0.34,meteohub,2013-09-13 18:12:00,
2013-09-13 11:17:00,61.3,49.5,29.80,ENE,57,4.0,8.0,65,0.00,,,0.34,meteohub,2013-09-13 18:17:00,
2013-09-13 11:22:00,61.3,49.5,29.81,East,100,1.0,8.0,65,0.00,,,0.34,meteohub,2013-09-13 18:22:00,
2013-09-13 11:32:00,61.2,48.9,29.80,NNE,15,2.0,6.0,64,0.00,,,0.34,meteohub,2013-09-13 18:32:00,
2013-09-13 11:42:00,61.3,49.1,29.79,NNE,31,1.0,5.0,64,0.00,,,0.34,meteohub,2013-09-13 18:42:00,
2013-09-13 11:47:00,61.3,49.5,29.79,NE,54,1.0,5.0,65,0.00,,,0.34,meteohub,2013-09-13 18:47:00,
2013-09-13 11:52:00,61.3,49.5,29.79,NE,40,3.0,5.0,65,0.00,,,0.34,meteohub,2013-09-13 18:52:00,
2013-09-13 11:57:00,61.5,48.0,29.79,ENE,71,1.0,6.0,61,0.00,,,0.34,meteohub,2013-09-13 18:57:00,
2013-09-13 12:02:00,61.9,47.8,29.79,NE,51,2.0,6.0,60,0.00,,,0.34,meteohub,2013-09-13 19:02:00,
2013-09-13 12:07:00,62.4,48.4,29.79,NE,49,3.0,6.0,60,0.00,,,0.34,meteohub,2013-09-13 19:07:00,
2013-09-13 12:12:00,62.8,49.1,29.79,NNE,28,4.0,6.0,61,0.00,,,0.34,meteohub,2013-09-13 19:12:00,
2013-09-13 12:17:00,63.0,47.5,29.79,East,90,3.0,6.0,57,0.00,,,0.34,meteohub,2013-09-13 19:17:00,
2013-09-13 12:22:00,63.0,46.6,29.78,ENE,64,0.0,7.0,55,0.00,,,0.34,meteohub,2013-09-13 19:22:00,
2013-09-13 12:27:00,63.1,46.8,29.78,WNW,292,2.0,7.0,55,0.00,,,0.34,meteohub,2013-09-13 19:27:00,
2013-09-13 12:32:00,63.5,46.0,29.78,NE,34,3.0,7.0,53,0.00,,,0.34,meteohub,2013-09-13 19:32:00,
2013-09-13 12:37:00,63.5,43.0,29.78,NE,38,3.0,7.0,47,0.00,,,0.34,meteohub,2013-09-13 19:37:00,
2013-09-13 12:42:00,63.5,44.6,29.78,North,349,0.0,7.0,50,0.00,,,0.34,meteohub,2013-09-13 19:42:00,
2013-09-13 12:47:00,63.7,43.2,29.78,SE,125,0.0,7.0,47,0.00,,,0.34,meteohub,2013-09-13 19:47:00,
2013-09-13 12:52:00,63.9,44.2,29.78,SSE,167,0.0,6.0,49,0.00,,,0.34,meteohub,2013-09-13 19:52:00,
2013-09-13 12:57:00,63.9,43.2,29.77,NNE,28,2.0,6.0,47,0.00,,,0.34,meteohub,2013-09-13 19:57:00,
2013-09-13 13:02:00,63.7,45.1,29.78,ENE,74,2.0,6.0,51,0.00,,,0.34,meteohub,2013-09-13 20:02:00,
2013-09-13 13:07:00,63.3,43.9,29.78,NE,51,4.0,9.0,49,0.00,,,0.34,meteohub,2013-09-13 20:07:00,
2013-09-13 13:12:00,63.3,45.0,29.78,NE,52,0.0,9.0,51,0.00,,,0.34,meteohub,2013-09-13 20:12:00,
2013-09-13 13:17:00,63.3,44.4,29.77,ENE,62,1.0,7.0,50,0.00,,,0.34,meteohub,2013-09-13 20:17:00,
2013-09-13 13:22:00,63.3,45.0,29.77,NE,42,3.0,4.0,51,0.00,,,0.34,meteohub,2013-09-13 20:22:00,
2013-09-13 13:27:00,63.1,44.8,29.77,ENE,67,0.0,6.0,51,0.00,,,0.34,meteohub,2013-09-13 20:27:00,
2013-09-13 13:32:00,63.3,45.0,29.76,ENE,67,1.0,6.0,51,0.00,,,0.34,meteohub,2013-09-13 20:32:00,
2013-09-13 13:37:00,63.5,44.6,29.76,NE,43,0.0,4.0,50,0.00,,,0.34,meteohub,2013-09-13 20:37:00,
2013-09-13 13:42:00,63.5,43.5,29.77,NE,43,0.0,3.0,48,0.00,,,0.34,meteohub,2013-09-13 20:42:00,
2013-09-13 13:47:00,63.3,43.3,29.77,North,11,0.0,4.0,48,0.00,,,0.34,meteohub,2013-09-13 20:47:00,
2013-09-13 13:52:00,63.1,41.5,29.77,WSW,250,8.0,8.0,45,0.00,,,0.34,meteohub,2013-09-13 20:52:00,
2013-09-13 13:57:00,63.1,43.2,29.76,WSW,244,4.0,16.0,48,0.00,,,0.34,meteohub,2013-09-13 20:57:00,
2013-09-13 14:02:00,63.0,44.1,29.76,WSW,257,6.0,16.0,50,0.00,,,0.34,meteohub,2013-09-13 21:02:00,
2013-09-13 14:07:00,62.8,44.4,29.76,West,269,3.0,16.0,51,0.00,,,0.34,meteohub,2013-09-13 21:07:00,
2013-09-13 14:12:00,63.0,44.6,29.75,West,260,2.0,9.0,51,0.00,,,0.34,meteohub,2013-09-13 21:12:00,
2013-09-13 14:17:00,63.0,44.6,29.76,WSW,246,4.0,7.0,51,0.00,,,0.34,meteohub,2013-09-13 21:17:00,
2013-09-13 14:22:00,63.7,46.2,29.75,WNW,283,4.0,7.0,53,0.00,,,0.34,meteohub,2013-09-13 21:22:00,
2013-09-13 14:27:00,64.0,47.1,29.75,WSW,240,7.0,8.0,54,0.00,,,0.34,meteohub,2013-09-13 21:27:00,
2013-09-13 14:32:00,64.0,47.1,29.75,WSW,253,6.0,8.0,54,0.00,,,0.34,meteohub,2013-09-13 21:32:00,
2013-09-13 14:37:00,64.0,47.5,29.75,WSW,254,7.0,9.0,55,0.00,,,0.34,meteohub,2013-09-13 21:37:00,
2013-09-13 14:42:00,64.0,47.1,29.75,WNW,283,7.0,11.0,54,0.00,,,0.34,meteohub,2013-09-13 21:42:00,
2013-09-13 14:47:00,64.0,47.1,29.75,WSW,254,8.0,11.0,54,0.00,,,0.34,meteohub,2013-09-13 21:47:00,
2013-09-13 14:57:00,62.4,46.9,29.75,West,267,5.0,11.0,57,0.00,,,0.34,meteohub,2013-09-13 21:57:00,
2013-09-13 15:02:00,62.4,46.6,29.75,WSW,248,4.0,11.0,56,0.00,,,0.34,meteohub,2013-09-13 22:02:00,
2013-09-13 15:07:00,62.1,46.2,29.75,WSW,249,6.0,10.0,56,0.00,,,0.34,meteohub,2013-09-13 22:07:00,
2013-09-13 15:12:00,62.1,47.5,29.75,WSW,247,7.0,10.0,59,0.00,,,0.34,meteohub,2013-09-13 22:12:00,
2013-09-13 15:17:00,62.4,47.5,29.74,West,261,3.0,10.0,58,0.00,,,0.34,meteohub,2013-09-13 22:17:00,
2013-09-13 15:22:00,63.7,44.2,29.74,WSW,238,1.0,9.0,49,0.00,,,0.34,meteohub,2013-09-13 22:22:00,
2013-09-13 15:27:00,64.9,46.4,29.74,WSW,249,4.0,7.0,51,0.00,,,0.34,meteohub,2013-09-13 22:27:00,
2013-09-13 15:32:00,65.7,45.5,29.74,WSW,254,7.0,9.0,48,0.00,,,0.34,meteohub,2013-09-13 22:32:00,
2013-09-13 15:37:00,66.0,46.8,29.73,WSW,249,9.0,9.0,50,0.00,,,0.34,meteohub,2013-09-13 22:37:00,
2013-09-13 15:42:00,65.8,46.2,29.73,WSW,256,7.0,11.0,49,0.00,,,0.34,meteohub,2013-09-13 22:42:00,
2013-09-13 15:47:00,65.8,45.0,29.73,WSW,251,3.0,11.0,47,0.00,,,0.34,meteohub,2013-09-13 22:47:00,
2013-09-13 15:52:00,65.8,45.0,29.73,West,269,6.0,11.0,47,0.00,,,0.34,meteohub,2013-09-13 22:52:00,
2013-09-13 15:57:00,65.7,45.0,29.73,West,271,5.0,9.0,47,0.00,,,0.34,meteohub,2013-09-13 22:57:00,
2013-09-13 16:02:00,65.7,46.0,29.73,WSW,249,12.0,12.0,49,0.00,,,0.34,meteohub,2013-09-13 23:02:00,
2013-09-13 16:07:00,65.7,45.5,29.73,WSW,257,6.0,12.0,48,0.00,,,0.34,meteohub,2013-09-13 23:07:00,
2013-09-13 16:12:00,65.5,45.3,29.73,West,267,6.0,12.0,48,0.00,,,0.34,meteohub,2013-09-13 23:12:00,
2013-09-13 16:17:00,65.1,46.6,29.72,WSW,255,6.0,12.0,51,0.00,,,0.34,meteohub,2013-09-13 23:17:00,
2013-09-13 16:22:00,65.1,46.0,29.73,West,262,5.0,10.0,50,0.00,,,0.34,meteohub,2013-09-13 23:22:00,
2013-09-13 16:27:00,65.5,44.8,29.73,West,267,6.0,8.0,47,0.00,,,0.34,meteohub,2013-09-13 23:27:00,
2013-09-13 16:32:00,65.5,45.3,29.73,WSW,248,5.0,7.0,48,0.00,,,0.34,meteohub,2013-09-13 23:32:00,
2013-09-13 16:37:00,64.9,45.9,29.73,WSW,242,1.0,6.0,50,0.00,,,0.34,meteohub,2013-09-13 23:37:00,
2013-09-13 16:42:00,65.1,46.0,29.72,WSW,242,4.0,7.0,50,0.00,,,0.34,meteohub,2013-09-13 23:42:00,
2013-09-13 16:47:00,65.5,44.8,29.73,West,262,2.0,9.0,47,0.00,,,0.34,meteohub,2013-09-13 23:47:00,
2013-09-13 16:52:00,65.1,45.5,29.72,WSW,251,1.0,9.0,49,0.00,,,0.34,meteohub,2013-09-13 23:52:00,
2013-09-13 16:57:00,64.6,47.1,29.72,WSW,244,5.0,8.0,53,0.00,,,0.34,meteohub,2013-09-13 23:57:00,
2013-09-13 17:02:00,63.9,46.9,29.72,WSW,257,3.0,8.0,54,0.00,,,0.34,meteohub,2013-09-14 00:02:00,
2013-09-13 17:07:00,63.3,45.9,29.72,WSW,251,4.0,6.0,53,0.00,,,0.00,meteohub,2013-09-14 00:07:00,
2013-09-13 17:12:00,63.0,46.0,29.72,SW,235,0.0,7.0,54,0.00,,,0.00,meteohub,2013-09-14 00:12:00,
2013-09-13 17:22:00,62.2,46.8,29.72,WSW,242,0.0,7.0,57,0.00,,,0.00,meteohub,2013-09-14 00:22:00,
2013-09-13 17:27:00,62.1,47.1,29.72,WSW,242,1.0,5.0,58,0.00,,,0.00,meteohub,2013-09-14 00:27:00,
2013-09-13 17:32:00,61.7,46.8,29.73,WSW,256,1.0,4.0,58,0.00,,,0.00,meteohub,2013-09-14 00:32:00,
2013-09-13 17:37:00,61.3,47.8,29.73,WSW,247,0.0,4.0,61,0.00,,,0.00,meteohub,2013-09-14 00:37:00,
2013-09-13 17:42:00,61.0,47.5,29.73,WSW,248,5.0,5.0,61,0.00,,,0.00,meteohub,2013-09-14 00:42:00,
2013-09-13 17:47:00,60.4,47.8,29.73,South,182,1.0,6.0,63,0.00,,,0.00,meteohub,2013-09-14 00:47:00,
2013-09-13 17:52:00,60.4,47.8,29.73,South,181,3.0,10.0,63,0.00,,,0.00,meteohub,2013-09-14 00:52:00,
2013-09-13 18:02:00,60.4,48.6,29.73,SSW,193,5.0,12.0,65,0.00,,,0.00,meteohub,2013-09-14 01:02:00,
2013-09-13 18:07:00,60.1,48.2,29.72,SSW,193,7.0,12.0,65,0.00,,,0.00,meteohub,2013-09-14 01:07:00,
2013-09-13 18:12:00,59.7,48.4,29.73,WSW,250,3.0,12.0,66,0.00,,,0.00,meteohub,2013-09-14 01:12:00,
2013-09-13 18:17:00,59.4,48.0,29.73,SW,218,8.0,12.0,66,0.00,,,0.00,meteohub,2013-09-14 01:17:00,
2013-09-13 18:22:00,59.2,47.8,29.73,WSW,253,8.0,13.0,66,0.00,,,0.00,meteohub,2013-09-14 01:22:00,
2013-09-13 18:27:00,58.6,47.7,29.73,WSW,252,11.0,13.0,67,0.00,,,0.00,meteohub,2013-09-14 01:27:00,
2013-09-13 18:32:00,58.5,48.0,29.72,SW,221,2.0,13.0,68,0.00,,,0.00,meteohub,2013-09-14 01:32:00,
2013-09-13 18:37:00,57.9,47.5,29.73,SW,221,1.0,12.0,68,0.00,,,0.00,meteohub,2013-09-14 01:37:00,
2013-09-13 18:42:00,57.6,47.5,29.73,South,185,6.0,12.0,69,0.00,,,0.00,meteohub,2013-09-14 01:42:00,
2013-09-13 18:47:00,57.6,47.5,29.73,WSW,239,4.0,12.0,69,0.00,,,0.00,meteohub,2013-09-14 01:47:00,
2013-09-13 18:52:00,57.7,47.7,29.73,WSW,250,2.0,12.0,69,0.00,,,0.00,meteohub,2013-09-14 01:52:00,
2013-09-13 18:57:00,57.6,47.5,29.73,SW,216,0.0,10.0,69,0.00,,,0.00,meteohub,2013-09-14 01:57:00,
2013-09-13 19:02:00,57.7,47.3,29.74,WNW,287,1.0,10.0,68,0.00,,,0.00,meteohub,2013-09-14 02:02:00,
2013-09-13 19:07:00,57.7,47.7,29.74,SSE,167,3.0,8.0,69,0.00,,,0.00,meteohub,2013-09-14 02:07:00,
2013-09-13 19:12:00,57.7,47.7,29.74,SSW,211,7.0,11.0,69,0.00,,,0.00,meteohub,2013-09-14 02:12:00,
2013-09-13 19:17:00,57.7,47.3,29.74,SSW,209,5.0,12.0,68,0.00,,,0.00,meteohub,2013-09-14 02:17:00,
2013-09-13 19:22:00,57.7,47.3,29.75,SW,216,0.0,12.0,68,0.00,,,0.00,meteohub,2013-09-14 02:22:00,
2013-09-13 19:27:00,57.7,48.0,29.75,South,183,5.0,9.0,70,0.00,,,0.00,meteohub,2013-09-14 02:27:00,
2013-09-13 19:32:00,57.6,47.8,29.75,SSW,197,6.0,8.0,70,0.00,,,0.00,meteohub,2013-09-14 02:32:00,
2013-09-13 19:37:00,57.2,48.6,29.75,South,186,3.0,8.0,73,0.00,,,0.00,meteohub,2013-09-14 02:37:00,
2013-09-13 19:42:00,56.8,48.9,29.75,SSW,201,6.0,8.0,75,0.00,,,0.00,meteohub,2013-09-14 02:42:00,
2013-09-13 19:47:00,56.5,48.4,29.75,SW,218,4.0,8.0,74,0.00,,,0.00,meteohub,2013-09-14 02:47:00,
2013-09-13 19:52:00,56.5,48.7,29.75,South,190,4.0,8.0,75,0.00,,,0.00,meteohub,2013-09-14 02:52:00,
2013-09-13 19:57:00,56.1,48.4,29.76,WSW,252,7.0,8.0,75,0.00,,,0.00,meteohub,2013-09-14 02:57:00,
2013-09-13 20:02:00,55.8,48.4,29.76,SSW,206,2.0,8.0,76,0.00,,,0.00,meteohub,2013-09-14 03:02:00,
2013-09-13 20:07:00,55.8,48.0,29.76,SW,216,4.0,8.0,75,0.00,,,0.00,meteohub,2013-09-14 03:07:00,
2013-09-13 20:12:00,55.9,48.6,29.76,SSW,204,4.0,8.0,76,0.00,,,0.00,meteohub,2013-09-14 03:12:00,
2013-09-13 20:17:00,55.9,48.2,29.77,South,181,4.0,8.0,75,0.00,,,0.00,meteohub,2013-09-14 03:17:00,
2013-09-13 20:22:00,55.9,48.6,29.77,SSW,192,6.0,8.0,76,0.00,,,0.00,meteohub,2013-09-14 03:22:00,
2013-09-13 20:27:00,55.8,48.7,29.77,SW,232,1.0,8.0,77,0.00,,,0.00,meteohub,2013-09-14 03:27:00,
2013-09-13 20:32:00,55.4,48.9,29.77,WSW,250,3.0,8.0,79,0.00,,,0.00,meteohub,2013-09-14 03:32:00,
2013-09-13 20:37:00,55.0,48.9,29.77,SW,233,0.0,7.0,80,0.00,,,0.00,meteohub,2013-09-14 03:37:00,
2013-09-13 20:42:00,54.9,49.1,29.77,WSW,251,3.0,7.0,81,0.00,,,0.00,meteohub,2013-09-14 03:42:00,
2013-09-13 20:47:00,54.7,48.9,29.78,SSW,197,4.0,6.0,81,0.00,,,0.00,meteohub,2013-09-14 03:47:00,
2013-09-13 20:52:00,54.7,48.6,29.77,WSW,257,3.0,6.0,80,0.00,,,0.00,meteohub,2013-09-14 03:52:00,
2013-09-13 20:57:00,54.9,48.7,29.77,SSW,196,4.0,9.0,80,0.00,,,0.00,meteohub,2013-09-14 03:57:00,
2013-09-13 21:02:00,54.9,49.1,29.78,SSW,207,0.0,9.0,81,0.00,,,0.00,meteohub,2013-09-14 04:02:00,
2013-09-13 21:07:00,54.9,48.7,29.78,SW,217,0.0,9.0,80,0.00,,,0.00,meteohub,2013-09-14 04:07:00,
2013-09-13 21:12:00,54.7,48.9,29.78,SW,217,0.0,7.0,81,0.00,,,0.00,meteohub,2013-09-14 04:12:00,
2013-09-13 21:17:00,54.3,49.3,29.78,SW,217,0.0,3.0,83,0.00,,,0.00,meteohub,2013-09-14 04:17:00,
2013-09-13 21:22:00,54.1,49.5,29.78,SW,217,0.0,2.0,84,0.01,,,0.01,meteohub,2013-09-14 04:22:00,
2013-09-13 21:27:00,53.8,49.1,29.78,SW,218,0.0,2.0,84,0.01,,,0.01,meteohub,2013-09-14 04:27:00,
2013-09-13 21:32:00,53.4,49.1,29.78,SW,218,1.0,2.0,85,0.01,,,0.01,meteohub,2013-09-14 04:32:00,
2013-09-13 21:37:00,53.4,49.1,29.78,SSW,208,2.0,2.0,85,0.01,,,0.01,meteohub,2013-09-14 04:37:00,
2013-09-13 21:42:00,53.2,48.9,29.78,SW,236,1.0,3.0,85,0.01,,,0.01,meteohub,2013-09-14 04:42:00,
2013-09-13 21:47:00,53.2,48.6,29.78,SW,236,0.0,3.0,84,0.01,,,0.01,meteohub,2013-09-14 04:47:00,
2013-09-13 21:52:00,53.2,48.6,29.78,SSW,207,1.0,4.0,84,0.01,,,0.01,meteohub,2013-09-14 04:52:00,
2013-09-13 22:02:00,53.1,48.7,29.78,SSW,210,0.0,4.0,85,0.01,,,0.01,meteohub,2013-09-14 05:02:00,
2013-09-13 22:07:00,52.9,48.7,29.78,SSW,210,0.0,4.0,86,0.01,,,0.01,meteohub,2013-09-14 05:07:00,
2013-09-13 22:12:00,52.3,48.6,29.78,SSW,210,0.0,0.0,87,0.01,,,0.01,meteohub,2013-09-14 05:12:00,
2013-09-13 22:17:00,52.0,48.6,29.78,SSW,210,0.0,1.0,88,0.01,,,0.01,meteohub,2013-09-14 05:17:00,
2013-09-13 22:22:00,52.0,48.9,29.78,SSW,210,0.0,1.0,89,0.00,,,0.01,meteohub,2013-09-14 05:22:00,
2013-09-13 22:27:00,52.0,49.1,29.78,SSW,210,0.0,1.0,90,0.00,,,0.01,meteohub,2013-09-14 05:27:00,
2013-09-13 22:32:00,52.0,48.9,29.78,SSE,161,0.0,2.0,89,0.00,,,0.01,meteohub,2013-09-14 05:32:00,
2013-09-13 22:37:00,52.0,48.9,29.78,WNW,302,4.0,4.0,89,0.00,,,0.01,meteohub,2013-09-14 05:37:00,
2013-09-13 22:42:00,51.6,48.2,29.78,WSW,252,3.0,4.0,88,0.00,,,0.01,meteohub,2013-09-14 05:42:00,
2013-09-13 22:47:00,52.0,48.9,29.78,SW,230,1.0,5.0,89,0.00,,,0.01,meteohub,2013-09-14 05:47:00,
2013-09-13 22:52:00,52.0,49.1,29.78,SW,236,3.0,5.0,90,0.00,,,0.01,meteohub,2013-09-14 05:52:00,
2013-09-13 22:57:00,51.8,49.3,29.78,SW,234,3.0,8.0,91,0.01,,,0.02,meteohub,2013-09-14 05:57:00,
2013-09-13 23:02:00,51.6,49.1,29.78,SSE,155,2.0,8.0,91,0.01,,,0.02,meteohub,2013-09-14 06:02:00,
2013-09-13 23:07:00,51.4,48.9,29.78,South,182,1.0,8.0,91,0.01,,,0.02,meteohub,2013-09-14 06:07:00,
2013-09-13 23:12:00,51.4,48.6,29.78,SSW,207,3.0,5.0,90,0.01,,,0.02,meteohub,2013-09-14 06:12:00,
2013-09-13 23:17:00,51.6,48.6,29.78,SSW,203,3.0,5.0,89,0.01,,,0.02,meteohub,2013-09-14 06:17:00,
2013-09-13 23:22:00,51.6,48.6,29.78,SW,230,0.0,5.0,89,0.01,,,0.02,meteohub,2013-09-14 06:22:00,
2013-09-13 23:27:00,51.6,48.7,29.78,SSW,205,2.0,5.0,90,0.01,,,0.02,meteohub,2013-09-14 06:27:00,
2013-09-13 23:32:00,51.4,48.6,29.78,SSW,205,2.0,5.0,90,0.01,,,0.02,meteohub,2013-09-14 06:32:00,
2013-09-13 23:37:00,51.3,48.2,29.78,SSW,207,0.0,3.0,89,0.01,,,0.02,meteohub,2013-09-14 06:37:00,
2013-09-13 23:42:00,51.3,48.7,29.78,SSW,207,0.0,3.0,91,0.01,,,0.02,meteohub,2013-09-14 06:42:00,
2013-09-13 23:47:00,50.7,47.8,29.78,SSW,207,0.0,2.0,90,0.01,,,0.02,meteohub,2013-09-14 06:47:00,
2013-09-13 23:52:00,50.4,47.3,29.78,SSW,207,0.0,2.0,89,0.01,,,0.02,meteohub,2013-09-14 06:52:00,
2013-09-13 23:57:00,50.0,47.1,29.78,SSW,207,0.0,2.0,90,0.00,,,0.02,meteohub,2013-09-14 06:57:00,